Zurück zum Katalog

CZ-4 DEB

AktivSSO
NORAD 26283·DEBRIS·🇨🇳 China

Gestartet Oct 14, 1999 von Taiyuan Satellite Launch Center

Loading…

Nächste Überflüge (nächste 24 Stunden)

TLE

AktuellSource: Space-Track

Epoche: Sep 14, 2026, 03:48 UTC

1 26283U 99057FV  26257.15882806  .00001235  00000-0  27615-3 0  9996
2 26283  98.4511 326.7078 0074807 244.3069 144.4695 14.56922315394072

Verfolge CZ-4 DEB in Echtzeit mit AllMySat

Download on the App Store